OE5WWO Weather Reports


time (UTC)temp
C
wind
direction
speed
KPH
gust
KPH
rain 1hr
cm
rain 24hr
cm
rain mn
cm
humidity
%
barometer
mb
20260906010105 14 0 0.0 3.2 0.00 0.69 0.00 85 1025.9
20260906005539 14 0 0.0 1.6 0.00 0.69 0.00 86 1025.8
20260906005040 14 0 0.0 3.2 0.00 0.69 0.00 85 1025.8
20260906004600 14 0 0.0 3.2 0.00 0.69 0.00 86 1025.8
20260906004039 15 0 0.0 1.6 0.00 0.69 0.00 86 1025.8
20260906003539 15 0 0.0 1.6 0.00 0.69 0.00 86 1025.7
20260906003106 15 0 0.0 0.0 0.00 0.69 0.00 86 1025.8
20260906002540 15 0 0.0 0.0 0.00 0.69 0.00 87 1025.7
20260906002042 15 0 0.0 0.0 0.00 0.69 0.00 87 1025.7
20260906001603 15 0 0.0 0.0 0.00 0.69 0.00 87 1025.6
20260906001040 15 0 0.0 0.0 0.00 0.69 0.00 86 1025.6
20260906000542 15 0 0.0 1.6 0.00 0.69 0.00 86 1025.6
20260906000101 15 0 0.0 1.6 0.00 0.69 0.00 86 1025.6
20260905235540 15 0 0.0 0.0 0.00 0.69 0.00 86 1025.6
20260905235040 15 0 0.0 0.0 0.00 0.69 0.00 85 1025.5
20260905234613 15 0 0.0 0.0 0.00 0.69 0.00 85 1025.6
20260905234039 15 0 0.0 0.0 0.00 0.69 0.00 85 1025.5
20260905233540 15 0 0.0 0.0 0.00 0.69 0.00 85 1025.5
20260905233103 16 0 0.0 0.0 0.00 0.69 0.00 85 1025.4
20260905232539 16 0 0.0 0.0 0.00 0.69 0.00 85 1025.3
20260905232039 16 0 0.0 0.0 0.00 0.69 0.00 84 1025.3
20260905231556 16 0 0.0 0.0 0.00 0.69 0.00 84 1025.3
20260905231039 16 0 0.0 0.0 0.00 0.69 0.00 84 1025.3
20260905230540 16 0 0.0 0.0 0.00 0.69 0.00 84 1025.3
20260905225539 16 0 0.0 1.6 0.00 0.69 0.00 83 1025.2
20260905225039 16 0 0.0 0.0 0.00 0.69 0.00 83 1025.2
20260905224610 16 0 0.0 0.0 0.00 0.69 0.00 83 1025.0
20260905224039 16 0 0.0 0.0 0.00 0.69 0.00 83 1025.0
20260905223539 16 0 0.0 0.0 0.00 0.69 0.00 83 1024.9
20260905223056 16 0 0.0 0.0 0.00 0.69 0.00 81 1024.8
20260905222541 16 0 0.0 0.0 0.00 0.69 0.00 82 1024.8
20260905222039 16 0 0.0 0.0 0.00 0.69 0.00 81 1024.8
20260905221601 17 0 0.0 0.0 0.00 0.69 0.00 80 1024.7
20260905221040 17 0 0.0 0.0 0.00 0.69 0.00 80 1024.7
20260905220542 17 0 0.0 0.0 0.00 0.69 0.00 80 1024.6
20260905220117 17 0 0.0 0.0 0.00 0.69 0.00 79 1024.5
20260905215540 17 0 0.0 0.0 0.00 0.69 0.69 79 1024.5
20260905215041 17 0 0.0 0.0 0.00 0.69 0.69 78 1024.5
20260905214611 17 0 0.0 0.0 0.00 0.69 0.69 78 1024.4
20260905214039 17 0 0.0 1.6 0.00 0.69 0.69 77 1024.3
20260905213540 17 0 0.0 3.2 0.00 0.69 0.69 77 1024.3
20260905213114 18 0 0.0 4.8 0.00 0.69 0.69 77 1024.2
20260905212539 18 0 0.0 4.8 0.00 0.69 0.69 77 1024.1
20260905212040 18 0 0.0 3.2 0.00 0.69 0.69 76 1024.0
20260905211603 18 345 0.0 3.2 0.00 0.69 0.69 76 1024.0
20260905211040 18 0 0.0 1.6 0.00 0.69 0.69 75 1024.0
20260905210540 18 0 0.0 1.6 0.00 0.69 0.69 75 1024.0
20260905210059 18 0 0.0 1.6 0.00 0.69 0.69 74 1023.9
20260905205539 18 0 0.0 0.0 0.00 0.69 0.69 74 1023.9
20260905205039 18 0 0.0 3.2 0.00 0.69 0.69 73 1024.0
20260905204556 18 0 0.0 3.2 0.00 0.69 0.69 73 1024.0
20260905204039 19 345 0.0 3.2 0.00 0.69 0.69 73 1024.0
20260905203543 19 0 0.0 1.6 0.00 0.69 0.69 72 1024.0
20260905203105 19 0 0.0 3.2 0.00 0.69 0.69 72 1023.9
20260905202540 19 0 0.0 3.2 0.00 0.69 0.69 71 1023.9
20260905202044 19 0 0.0 3.2 0.00 0.69 0.69 71 1023.8
20260905201606 19 0 0.0 3.2 0.00 0.69 0.69 71 1023.9
20260905201040 19 0 0.0 3.2 0.00 0.69 0.69 71 1023.9
20260905200540 19 0 0.0 3.2 0.00 0.69 0.69 71 1023.7
20260905200100 19 0 0.0 4.8 0.00 0.69 0.69 71 1023.6
20260905195540 20 0 0.0 4.8 0.00 0.69 0.69 71 1023.7
20260905195039 20 289 0.0 4.8 0.00 0.69 0.69 71 1023.7
20260905194602 20 309 0.0 3.2 0.00 0.69 0.69 70 1023.6
20260905194039 20 0 0.0 4.8 0.00 0.69 0.69 70 1023.6
20260905193539 20 0 0.0 4.8 0.00 0.69 0.69 70 1023.5
20260905193101 20 0 0.0 4.8 0.00 0.69 0.69 70 1023.6
20260905192541 20 277 0.0 3.2 0.00 0.69 0.69 70 1023.5
20260905192040 20 0 0.0 3.2 0.00 0.69 0.69 70 1023.5
20260905191614 20 0 0.0 3.2 0.00 0.69 0.69 70 1023.4
20260905191041 20 257 0.0 3.2 0.00 0.69 0.69 70 1023.3
20260905190539 20 277 0.0 3.2 0.00 0.69 0.69 70 1023.2
20260905190105 20 0 0.0 3.2 0.00 0.69 0.69 70 1023.2
20260905185540 20 0 0.0 1.6 0.00 0.69 0.69 70 1023.1
20260905185039 20 0 0.0 1.6 0.00 0.69 0.69 69 1023.1
20260905184610 20 0 0.0 1.6 0.00 0.69 0.69 68 1023.0
20260905184041 20 225 0.0 1.6 0.00 0.69 0.69 68 1023.0
20260905183542 20 0 0.0 0.0 0.00 0.69 0.69 68 1022.9
20260905183101 20 0 0.0 0.0 0.00 0.69 0.69 66 1022.8
20260905182543 21 0 0.0 3.2 0.00 0.69 0.69 66 1022.9
20260905182043 21 0 0.0 3.2 0.00 0.69 0.69 66 1022.8
20260905181559 21 0 0.0 3.2 0.00 0.69 0.69 65 1022.8
20260905181041 21 238 0.0 8.0 0.00 0.69 0.69 64 1022.6
20260905180540 21 0 0.0 8.0 0.00 0.69 0.69 64 1022.5
20260905180055 21 261 1.6 8.0 0.00 0.69 0.69 64 1022.5
20260905175539 21 226 0.0 3.2 0.00 0.69 0.69 64 1022.4
20260905175040 21 222 0.0 3.2 0.00 0.69 0.69 64 1022.3
20260905174609 21 0 0.0 4.8 0.00 0.69 0.69 64 1022.3
20260905174040 21 0 0.0 4.8 0.00 0.69 0.69 63 1022.2
20260905173541 21 225 0.0 6.4 0.00 0.69 0.69 63 1022.1
20260905173110 21 0 1.6 6.4 0.00 0.69 0.69 63 1022.0
20260905172542 22 270 0.0 6.4 0.00 0.69 0.69 62 1022.0
20260905172040 22 13 1.6 11.3 0.00 0.69 0.69 62 1021.9
20260905171558 22 221 3.2 11.3 0.00 0.69 0.69 61 1021.9
20260905171040 22 230 0.0 8.0 0.00 0.69 0.69 62 1021.9
20260905170539 22 0 1.6 11.3 0.00 0.69 0.69 61 1022.0
20260905170107 22 296 3.2 12.9 0.00 0.69 0.69 61 1021.9
20260905165545 22 237 1.6 12.9 0.00 0.69 0.69 61 1021.9
20260905165039 22 219 3.2 14.5 0.00 0.69 0.69 60 1021.9
20260905164600 22 229 4.8 14.5 0.00 0.69 0.69 60 1021.9
20260905164039 22 226 3.2 12.9 0.00 0.69 0.69 60 1021.9
20260905163540 22 0 3.2 25.7 0.00 0.69 0.69 60 1021.9
20260905163107 22 210 3.2 25.7 0.00 0.69 0.69 60 1021.8
20260905162541 22 335 8.0 24.1 0.00 0.69 0.69 60 1021.8
20260905162041 23 211 3.2 12.9 0.00 0.69 0.69 59 1021.8
20260905161604 23 289 4.8 12.9 0.00 0.69 0.69 59 1021.7
20260905161041 23 0 1.6 14.5 0.00 0.69 0.69 59 1021.6
20260905160537 23 0 0.0 14.5 0.00 0.69 0.69 59 1021.6
20260905160059 22 288 3.2 14.5 0.00 0.69 0.69 59 1021.6
20260905155541 22 0 3.2 12.9 0.00 0.69 0.69 59 1021.7
20260905155040 23 296 1.6 19.3 0.00 0.69 0.69 59 1021.7
20260905154604 23 228 6.4 19.3 0.00 0.69 0.69 58 1021.6
20260905154041 23 269 4.8 19.3 0.00 0.69 0.69 57 1021.5
20260905153539 23 286 3.2 14.5 0.00 0.69 0.69 57 1021.5
20260905153107 23 238 3.2 12.9 0.00 0.69 0.69 58 1021.6
20260905152540 23 29 1.6 12.9 0.00 0.69 0.69 58 1021.6
20260905152039 23 243 3.2 14.5 0.00 0.69 0.69 57 1021.6
20260905151559 24 311 3.2 14.5 0.00 0.69 0.69 56 1021.6
20260905151044 24 207 1.6 14.5 0.00 0.69 0.69 56 1021.5
20260905150539 24 229 1.6 14.5 0.00 0.69 0.69 56 1021.5
20260905145538 23 216 4.8 12.9 0.00 0.69 0.69 56 1021.5
20260905145039 23 233 1.6 12.9 0.00 0.69 0.69 55 1021.5
20260905144601 23 212 3.2 12.9 0.00 0.69 0.69 56 1021.5
20260905144039 23 0 1.6 11.3 0.00 0.69 0.69 57 1021.6
20260905143540 23 0 3.2 14.5 0.00 0.69 0.69 57 1021.6
20260905143100 23 221 4.8 14.5 0.00 0.69 0.69 58 1021.6
20260905142541 23 0 0.0 14.5 0.00 0.69 0.69 59 1021.7
20260905142042 23 240 4.8 14.5 0.00 0.69 0.69 60 1021.8
20260905141612 23 9 3.2 16.1 0.00 0.69 0.69 60 1021.8
20260905141042 23 230 4.8 16.1 0.00 0.69 0.69 58 1021.9
20260905140539 23 215 4.8 16.1 0.00 0.69 0.69 58 1021.9
20260905140106 23 221 4.8 12.9 0.00 0.69 0.69 57 1021.9
20260905135539 23 281 1.6 14.5 0.00 0.69 0.69 59 1021.9
20260905135039 23 0 3.2 16.1 0.00 0.69 0.69 58 1022.0
20260905134607 23 201 3.2 16.1 0.00 0.69 0.69 59 1022.0
20260905134042 23 207 3.2 14.5 0.00 0.69 0.69 59 1022.1
20260905133540 23 250 1.6 16.1 0.00 0.69 0.69 59 1022.0
20260905133100 22 325 3.2 16.1 0.00 0.69 0.69 59 1022.0
20260905132539 23 239 4.8 16.1 0.00 0.69 0.69 57 1022.0
20260905132040 23 0 1.6 14.5 0.00 0.69 0.69 59 1022.0
20260905131559 22 21 3.2 14.5 0.00 0.69 0.69 59 1022.0
20260905131037 22 352 3.2 12.9 0.00 0.69 0.69 58 1022.0
20260905130540 22 182 3.2 12.9 0.00 0.69 0.69 60 1022.0
20260905130100 22 263 1.6 16.1 0.00 0.69 0.69 60 1022.1
20260905125540 22 227 4.8 19.3 0.00 0.69 0.69 60 1022.2
20260905125038 22 0 6.4 20.9 0.00 0.69 0.69 60 1022.3
20260905124559 22 165 3.2 20.9 0.00 0.69 0.69 60 1022.5
20260905124038 22 239 1.6 16.1 0.00 0.69 0.69 62 1022.5
20260905123537 22 246 4.8 16.1 0.00 0.69 0.69 61 1022.5
20260905123100 21 232 3.2 16.1 0.00 0.69 0.69 64 1022.6
20260905122541 21 19 3.2 20.9 0.00 0.69 0.69 64 1022.7
20260905122041 21 173 4.8 20.9 0.00 0.69 0.69 65 1022.7
20260905121557 21 199 4.8 19.3 0.00 0.69 0.69 65 1022.7
20260905121041 21 223 3.2 19.3 0.00 0.69 0.69 66 1022.7
20260905120544 21 220 4.8 16.1 0.00 0.69 0.69 67 1022.7
20260905120059 21 213 3.2 12.9 0.00 0.69 0.69 66 1022.7
20260905115543 21 344 3.2 17.7 0.00 0.69 0.69 66 1022.7
20260905115043 21 161 4.8 17.7 0.00 0.69 0.69 67 1022.7
20260905114626 21 189 3.2 14.5 0.00 0.69 0.69 68 1022.6
20260905114040 20 221 3.2 14.5 0.00 0.69 0.69 70 1022.7
20260905113541 20 248 3.2 14.5 0.00 0.69 0.69 67 1022.6
20260905113102 20 292 4.8 14.5 0.00 0.69 0.69 69 1022.7
20260905112540 20 0 1.6 12.9 0.00 0.69 0.69 71 1022.7
20260905112039 20 0 3.2 14.5 0.00 0.69 0.69 71 1022.6
20260905111557 19 213 4.8 14.5 0.00 0.69 0.69 72 1022.8
20260905111041 19 204 4.8 12.9 0.00 0.69 0.69 73 1022.7
20260905110541 19 339 3.2 14.5 0.00 0.69 0.69 73 1022.7
20260905110057 19 348 1.6 14.5 0.00 0.69 0.69 74 1022.7
20260905105539 19 325 1.6 14.5 0.00 0.69 0.69 74 1022.7
20260905105040 19 291 1.6 16.1 0.00 0.69 0.69 75 1022.7
20260905104559 19 298 1.6 16.1 0.00 0.69 0.69 76 1022.6
20260905104039 18 239 3.2 16.1 0.00 0.69 0.69 76 1022.7
20260905103542 18 275 4.8 16.1 0.00 0.69 0.69 76 1022.8
20260905103059 18 194 1.6 9.7 0.00 0.69 0.69 79 1022.6
20260905102539 18 346 1.6 14.5 0.00 0.69 0.69 79 1022.7
20260905102041 18 333 1.6 14.5 0.00 0.69 0.69 80 1022.7
20260905101600 17 198 3.2 12.9 0.00 0.69 0.69 81 1022.7
20260905101040 17 280 4.8 14.5 0.00 0.69 0.69 82 1022.8
20260905100539 17 346 3.2 14.5 0.00 0.69 0.69 83 1023.1
20260905100114 17 265 1.6 9.7 0.00 0.69 0.69 84 1023.2
20260905095539 17 0 1.6 9.7 0.00 0.69 0.69 86 1023.1
20260905095043 17 214 3.2 8.0 0.00 0.69 0.69 86 1023.1
20260905094622 17 345 0.0 6.4 0.00 0.69 0.69 87 1023.1
20260905094039 17 243 0.0 6.4 0.00 0.69 0.69 87 1023.0
20260905093540 16 0 0.0 6.4 0.00 0.69 0.69 88 1023.1
20260905093103 16 273 0.0 8.0 0.00 0.69 0.69 88 1023.1
20260905092541 16 211 1.6 8.0 0.00 0.69 0.69 89 1023.1
20260905092040 16 223 1.6 9.7 0.00 0.69 0.69 89 1023.1
20260905091615 16 236 3.2 9.7 0.00 0.69 0.69 89 1023.0
20260905091039 16 0 1.6 8.0 0.00 0.69 0.69 90 1023.2
20260905090540 16 0 0.0 6.4 0.00 0.69 0.69 91 1023.2
20260905090104 16 229 1.6 6.4 0.00 0.69 0.69 90 1023.2
20260905085540 16 224 0.0 4.8 0.00 0.69 0.69 90 1023.1
20260905085039 16 0 0.0 9.7 0.00 0.69 0.69 90 1023.0
20260905084604 16 0 1.6 9.7 0.00 0.69 0.69 90 1023.1
20260905084040 16 352 1.6 9.7 0.00 0.69 0.69 91 1023.1
20260905083540 16 219 3.2 9.7 0.00 0.69 0.69 90 1023.1
20260905083101 16 348 1.6 9.7 0.00 0.69 0.69 91 1023.1
20260905082539 16 246 1.6 9.7 0.00 0.69 0.69 91 1023.1
20260905082041 16 0 1.6 8.0 0.03 0.69 0.69 91 1023.2
20260905081555 16 236 1.6 8.0 0.03 0.69 0.69 91 1023.0
20260905081041 16 241 3.2 9.7 0.08 0.69 0.69 91 1023.1
20260905080539 16 229 1.6 11.3 0.10 0.69 0.69 91 1023.2
20260905080059 16 221 3.2 11.3 0.20 0.69 0.69 91 1023.1
20260905075540 16 200 3.2 11.3 0.28 0.69 0.69 91 1023.0
20260905075039 16 199 1.6 11.3 0.30 0.69 0.69 91 1022.9
20260905074602 16 0 1.6 14.5 0.33 0.69 0.69 91 1022.7
20260905074040 16 234 1.6 14.5 0.36 0.69 0.69 91 1022.7
20260905073539 16 206 3.2 14.5 0.36 0.69 0.69 90 1022.6
20260905073107 16 244 3.2 12.9 0.36 0.69 0.69 90 1022.3
20260905072542 16 0 0.0 6.4 0.36 0.66 0.66 91 1022.3
20260905072039 16 251 0.0 6.4 0.36 0.64 0.64 90 1022.3
20260905071555 16 0 1.6 6.4 0.36 0.64 0.64 90 1022.3
20260905071044 16 0 0.0 4.8 0.38 0.61 0.61 89 1022.3
20260905070539 16 0 0.0 11.3 0.36 0.56 0.56 89 1022.2
20260905070101 16 0 0.0 11.3 0.36 0.46 0.46 89 1022.1
20260905065542 16 266 0.0 8.0 0.28 0.41 0.41 89 1022.2
20260905065043 16 0 0.0 8.0 0.25 0.36 0.36 89 1022.2
20260905064611 16 0 0.0 8.0 0.23 0.36 0.36 89 1022.1
20260905064040 16 233 0.0 8.0 0.20 0.33 0.33 88 1022.1
20260905063543 16 223 0.0 4.8 0.18 0.30 0.30 88 1022.2
20260905063110 17 232 0.0 4.8 0.18 0.30 0.30 89 1021.9
20260905062539 17 0 0.0 4.8 0.18 0.30 0.30 89 1021.7
20260905062040 17 0 0.0 4.8 0.18 0.28 0.28 88 1021.5
20260905061615 17 227 0.0 4.8 0.15 0.25 0.25 89 1021.6
20260905061039 17 0 1.6 4.8 0.10 0.20 0.20 88 1021.9
20260905060539 17 0 0.0 3.2 0.08 0.18 0.18 88 1021.9
20260905060105 17 0 0.0 3.2 0.00 0.10 0.10 88 1021.4
20260905055539 17 0 0.0 1.6 0.00 0.10 0.10 88 1020.9
20260905055042 17 0 0.0 1.6 0.00 0.10 0.10 88 1020.8
20260905054601 17 0 0.0 1.6 0.00 0.10 0.10 87 1020.5
20260905054039 17 0 0.0 3.2 0.03 0.10 0.10 87 1020.5
20260905053539 17 0 0.0 4.8 0.08 0.10 0.10 86 1020.2
20260905053058 17 0 0.0 4.8 0.08 0.10 0.10 86 1020.2
20260905052542 17 0 0.0 4.8 0.08 0.10 0.10 86 1020.0
20260905052039 17 87 0.0 3.2 0.08 0.10 0.10 86 1020.0
20260905051608 17 0 0.0 3.2 0.08 0.08 0.08 84 1021.0
20260905051039 17 0 0.0 4.8 0.08 0.08 0.08 84 1020.9
20260905050539 17 0 0.0 6.4 0.08 0.08 0.08 83 1019.3
20260905050108 17 222 1.6 6.4 0.08 0.08 0.08 84 1018.9
20260905045538 17 0 0.0 4.8 0.08 0.08 0.08 83 1018.6
20260905045042 18 0 0.0 3.2 0.08 0.08 0.08 83 1018.6
20260905044602 18 0 0.0 4.8 0.08 0.08 0.08 81 1018.5
20260905044039 18 0 0.0 8.0 0.08 0.08 0.08 81 1018.6
20260905043539 18 57 0.0 16.1 0.03 0.03 0.03 79 1018.5
20260905043105 19 317 3.2 16.1 0.00 0.00 0.00 78 1018.3
20260905042544 20 5 4.8 16.1 0.00 0.00 0.00 75 1018.3
20260905042039 20 349 3.2 20.9 0.00 0.00 0.00 72 1018.1
20260905041603 21 126 1.6 20.9 0.00 0.00 0.00 70 1017.9
20260905041040 21 160 4.8 20.9 0.00 0.00 0.00 66 1017.8
20260905040540 21 338 1.6 9.7 0.00 0.00 0.00 66 1017.5
20260905035539 21 5 3.2 9.7 0.00 0.00 0.00 68 1016.9
20260905035039 20 333 3.2 8.0 0.00 0.00 0.00 70 1017.1
20260905034610 20 0 1.6 8.0 0.00 0.00 0.00 72 1016.6
20260905034039 20 331 0.0 4.8 0.00 0.00 0.00 73 1016.8
20260905033540 20 330 0.0 0.0 0.00 0.00 0.00 74 1016.9
20260905033109 20 0 0.0 0.0 0.00 0.00 0.00 75 1016.8
20260905032540 20 0 0.0 0.0 0.00 0.00 0.00 76 1016.6
20260905032039 20 0 0.0 0.0 0.00 0.00 0.00 76 1016.5
20260905031614 20 0 0.0 0.0 0.00 0.00 0.00 76 1016.3
20260905031040 20 0 0.0 0.0 0.00 0.00 0.00 76 1016.0
20260905030539 20 0 0.0 0.0 0.00 0.00 0.00 76 1016.1
20260905030058 20 0 0.0 0.0 0.00 0.00 0.00 76 1016.1
20260905025540 20 0 0.0 0.0 0.00 0.00 0.00 76 1016.2
20260905025045 20 0 0.0 0.0 0.00 0.00 0.00 75 1016.2
20260905024559 20 0 0.0 0.0 0.00 0.00 0.00 75 1016.1
20260905024040 20 0 0.0 0.0 0.00 0.00 0.00 75 1016.0
20260905023543 20 0 0.0 0.0 0.00 0.00 0.00 75 1016.0
20260905023129 20 0 0.0 0.0 0.00 0.00 0.00 75 1016.0
20260905022539 20 0 0.0 0.0 0.00 0.00 0.00 75 1015.8
20260905022040 20 0 0.0 0.0 0.00 0.00 0.00 75 1015.9
20260905021630 20 0 0.0 0.0 0.00 0.00 0.00 74 1015.9
20260905021039 20 0 0.0 0.0 0.00 0.00 0.00 74 1015.8
20260905020539 20 0 0.0 0.0 0.00 0.00 0.00 74 1015.6
20260905020103 20 0 0.0 0.0 0.00 0.00 0.00 73 1015.6
20260905015539 20 0 0.0 0.0 0.00 0.00 0.00 73 1015.5
20260905015041 20 0 0.0 0.0 0.00 0.00 0.00 73 1015.5
20260905014616 20 0 0.0 0.0 0.00 0.00 0.00 73 1015.4
20260905014041 20 0 0.0 0.0 0.00 0.00 0.00 73 1015.4
20260905013540 20 0 0.0 0.0 0.00 0.00 0.00 72 1015.3
20260905013104 20 0 0.0 0.0 0.00 0.00 0.00 72 1015.4
20260905012539 20 0 0.0 0.0 0.00 0.00 0.00 71 1015.4
20260905012039 20 0 0.0 0.0 0.00 0.00 0.00 71 1015.4
20260905011605 20 0 0.0 0.0 0.00 0.00 0.00 71 1015.4
20260905011039 20 0 0.0 0.0 0.00 0.00 0.00 71 1015.4
20260905010539 20 0 0.0 0.0 0.00 0.00 0.00 71 1015.3